Pocatello, ID

11:16 AM MDT on March 25, 2017 (GMT -0600)
Pocatello Regional

Weather History for KPIH - August, 2013

Change the Weather History Date:

Monday, August 12, 2013

  Actual Average Record
Temperature  
Mean Temperature 71 °F 70 °F  
Max Temperature 94 °F 88 °F 101 °F (1940)
Min Temperature 47 °F 52 °F 42 °F (1985)
Degree Days  
Heating Degree Days 0 0  
Month to date heating degree days 0 0  
Since 1 June heating degree days 90 151  
Since 1 July heating degree days 0 20  
Cooling Degree Days 6 6  
Month to date cooling degree days 86 72  
Year to date cooling degree days 480 295  
Since 1 June cooling degree days 471 290  
Growing Degree Days 18 (Base 50)    
Moisture  
Dew Point 34 °F    
Average Humidity 36    
Maximum Humidity 61    
Minimum Humidity 10    
Precipitation  
Precipitation 0.00 in 0.02 in 0.46 in (1969)
Month to date precipitation 0.01 0.22  
Year to date precipitation 3.83 7.68  
Snow  
Snow 0.00 in - - ()
Month to date snowfall 0.0  
Since 1 June snowfall 0.0  
Since 1 July snowfall 0.0  
Snow Depth 0.00 in    
Sea Level Pressure  
Sea Level Pressure 29.92 in    
Wind  
Wind Speed 8 mph (NE)    
Max Wind Speed 24 mph    
Max Gust Speed 30 mph    
Visibility 10 miles    
Events Thunderstorm    
T = Trace of Precipitation, MM = Missing Value Source: NWS Daily Summary

Daily Weather History Graph

Daily Weather History Graph

Search for Another Location

Airport or City:

Trip Planner

Search our weather history database for the weather conditions in past years. The results will help you decide how hot, cold, wet, or windy it might be!

Date:

Astronomy

Aug. 12, 2013 Rise Set
Actual Time 6:33 AM MDT 8:36 PM MDT
Civil Twilight 6:02 AM MDT 9:07 PM MDT
Nautical Twilight 5:24 AM MDT 9:44 PM MDT
Astronomical Twilight 4:43 AM MDT 10:26 PM MDT
Moon 12:39 PM MDT (8/12) 11:20 PM MDT (8/12)
Length of Visible Light 15h 04m
Length of Day
14h 02m
Waxing Crescent, 32% of the Moon is Illuminated
Aug 12
Waxing Crescent
Aug 14
First Quarter
Aug 20
Full
Aug 28
Last Quarter
Sep 5
New

Hourly Weather History & Observations

Time (MDT) Temp. Dew Point Humidity Pressure Visibility Wind Dir Wind Speed Gust Speed Precip Events Conditions
12:53 AM 68.0 °F 25.0 °F 20% 29.87 in 10.0 mi East 4.6 mph - N/A   Clear
1:53 AM 57.0 °F 28.9 °F 34% 29.89 in 10.0 mi Calm Calm - N/A   Clear
2:53 AM 54.0 °F 34.0 °F 47% 29.89 in 10.0 mi NNW 11.5 mph - N/A   Clear
3:53 AM 48.0 °F 32.0 °F 54% 29.92 in 10.0 mi ENE 3.5 mph - N/A   Clear
4:53 AM 54.0 °F 32.0 °F 43% 29.91 in 10.0 mi Calm Calm - N/A   Clear
5:53 AM 48.0 °F 36.0 °F 63% 29.93 in 10.0 mi NW 6.9 mph - N/A   Clear
6:53 AM 50.0 °F 37.0 °F 61% 29.94 in 10.0 mi Calm Calm - N/A   Scattered Clouds
7:53 AM 55.9 °F 37.9 °F 51% 29.95 in 10.0 mi Variable 3.5 mph - 0.01 in   Scattered Clouds
8:53 AM 61.0 °F 39.9 °F 46% 29.97 in 10.0 mi NE 3.5 mph - N/A   Mostly Cloudy
9:53 AM 71.1 °F 39.0 °F 31% 29.97 in 10.0 mi Calm Calm - N/A   Scattered Clouds
10:53 AM 81.0 °F 41.0 °F 24% 29.95 in 10.0 mi ENE 5.8 mph - N/A   Clear
11:53 AM 84.0 °F 39.9 °F 21% 29.94 in 10.0 mi North 10.4 mph - N/A   Clear
12:53 PM 87.1 °F 37.0 °F 17% 29.91 in 10.0 mi NNW 9.2 mph 16.1 mph N/A   Scattered Clouds
1:10 PM 84.2 °F 37.4 °F 19% 30.07 in 10.0 mi North 9.2 mph - N/A Thunderstorm Thunderstorm
1:53 PM 82.9 °F 37.9 °F 20% 29.94 in 10.0 mi NE 6.9 mph - 0.00 in Thunderstorm Thunderstorm
2:50 PM 87.8 °F 28.4 °F 12% 30.05 in 10.0 mi NE 16.1 mph 23.0 mph N/A   Scattered Clouds
2:53 PM 90.0 °F 28.0 °F 11% 29.91 in 10.0 mi NE 16.1 mph 23.0 mph N/A   Scattered Clouds
3:53 PM 93.0 °F 28.0 °F 10% 29.91 in 10.0 mi East 10.4 mph - N/A   Scattered Clouds
4:53 PM 91.0 °F 27.0 °F 10% 29.88 in 10.0 mi East 6.9 mph - N/A   Clear
5:53 PM 91.9 °F 26.1 °F 9% 29.88 in 10.0 mi Variable 6.9 mph - N/A   Clear
6:53 PM 86.0 °F 32.0 °F 14% 29.88 in 10.0 mi ESE 21.9 mph 25.3 mph N/A   Clear
7:53 PM 82.9 °F 32.0 °F 16% 29.88 in 10.0 mi SE 20.7 mph 29.9 mph N/A   Clear
8:53 PM 79.0 °F 33.1 °F 19% 29.90 in 10.0 mi ESE 15.0 mph - N/A   Clear
9:53 PM 75.9 °F 34.0 °F 22% 29.92 in 10.0 mi Variable 4.6 mph - N/A   Clear
10:53 PM 80.1 °F 30.9 °F 17% 29.89 in 10.0 mi East 12.7 mph 20.7 mph N/A   Clear
11:53 PM 75.0 °F 33.1 °F 22% 29.90 in 10.0 mi Calm Calm - N/A   Clear